North Myrtle Beach, SC

3:17 AM EST on January 20, 2017 (GMT -0500)
Grand Strand

Weather History for KCRE - March, 2014

Change the Weather History Date:

Monday, March 17, 2014

  Actual Average Record
Temperature  
Mean Temperature 48 °F 54 °F  
Max Temperature 57 °F 64 °F 84 °F (2015)
Min Temperature 39 °F 45 °F 28 °F (1954)
Degree Days  
Heating Degree Days 17 11  
Month to date heating degree days 264 212  
Since 1 July heating degree days 2288 2156  
Cooling Degree Days 0 0  
Month to date cooling degree days 0 0  
Year to date cooling degree days 0 0  
Moisture  
Dew Point 44 °F    
Average Humidity 95    
Maximum Humidity 100    
Minimum Humidity 89    
Precipitation  
Precipitation 0.21 in 0.12 in 0.55 in (2003)
Month to date precipitation 2.19 2.14  
Year to date precipitation 6.31 9.25  
Snow  
Snow 0.00 in - - ()
Month to date snowfall 0.0  
Snow Depth 0.00 in    
Sea Level Pressure  
Sea Level Pressure 29.79 in    
Wind  
Wind Speed 9 mph (NNE)    
Max Wind Speed 17 mph    
Max Gust Speed 22 mph    
Visibility 6 miles    
Events Rain    
T = Trace of Precipitation, MM = Missing Value Source: NWS Daily Summary

Daily Weather History Graph

Daily Weather History Graph

Search for Another Location

Airport or City:

Trip Planner

Search our weather history database for the weather conditions in past years. The results will help you decide how hot, cold, wet, or windy it might be!

Date:

Astronomy

Mar. 17, 2014 Rise Set
Actual Time 7:22 AM EDT 7:24 PM EDT
Civil Twilight 6:57 AM EDT 7:49 PM EDT
Nautical Twilight 6:28 AM EDT 8:18 PM EDT
Astronomical Twilight 5:59 AM EDT 8:47 PM EDT
Moon 8:34 PM EDT (3/17) 7:40 AM EDT (3/17)
Length of Visible Light 12h 51m
Length of Day
12h 01m
Full, 99% of the Moon is Illuminated
Mar 17
Full
Mar 23
Last Quarter
Mar 30
New
Apr 7
First Quarter
Apr 15
Full

Hourly Weather History & Observations

Time (EDT) Temp. Windchill Dew Point Humidity Pressure Visibility Wind Dir Wind Speed Gust Speed Precip Events Conditions
12:07 AM 57.9 °F - 57.0 °F 97% 29.73 in 8.0 mi NNE 3.5 mph - 0.00 in   Overcast
12:24 AM 57.9 °F - 57.0 °F 97% 29.73 in 6.0 mi North 3.5 mph - 0.00 in   Overcast
12:49 AM 57.2 °F - 55.4 °F 94% 29.73 in 4.0 mi NNE 5.8 mph - 0.00 in   Overcast
12:50 AM 57.9 °F - 55.9 °F 93% 29.73 in 4.0 mi NNE 5.8 mph - 0.00 in   Overcast
1:25 AM 57.0 °F - 55.0 °F 93% 29.73 in 8.0 mi Calm Calm - N/A   Overcast
1:40 AM 55.9 °F - 55.0 °F 97% 29.73 in 6.0 mi Calm Calm - 0.00 in Rain Light Rain
1:53 AM 55.9 °F - 55.0 °F 97% 29.74 in 5.0 mi Calm Calm - 0.00 in Rain Light Rain
2:09 AM 55.9 °F - 55.0 °F 97% 29.74 in 6.0 mi NW 3.5 mph - 0.00 in Rain Light Rain
2:17 AM 55.9 °F - 55.0 °F 97% 29.74 in 5.0 mi North 3.5 mph - 0.00 in Rain Light Rain
2:24 AM 55.9 °F - 55.0 °F 97% 29.74 in 5.0 mi NW 3.5 mph - 0.00 in Rain Light Rain
2:53 AM 55.9 °F - 55.0 °F 97% 29.75 in 6.0 mi North 3.5 mph - 0.01 in Rain Light Rain
3:37 AM 55.0 °F - 54.0 °F 96% 29.72 in 4.0 mi Calm Calm - 0.01 in Rain Light Rain
3:51 AM 55.4 °F - 55.4 °F 100% 29.71 in 4.0 mi Calm Calm - 0.01 in Rain Light Rain
3:53 AM 55.9 °F - 55.0 °F 97% 29.71 in 5.0 mi Calm Calm - 0.01 in Rain Light Rain
4:19 AM 55.0 °F - 54.0 °F 96% 29.71 in 2.0 mi Calm Calm - 0.00 in Rain Light Rain
4:25 AM 55.0 °F - 54.0 °F 96% 29.70 in 3.0 mi Calm Calm - 0.00 in Rain Light Rain
4:31 AM 55.0 °F - 54.0 °F 96% 29.71 in 1.8 mi Calm Calm - 0.00 in Rain Light Rain
4:44 AM 55.0 °F - 54.0 °F 96% 29.71 in 2.0 mi NNE 6.9 mph - 0.00 in Rain Light Rain
4:53 AM 55.0 °F - 54.0 °F 96% 29.72 in 6.0 mi NNE 4.6 mph - 0.00 in Rain Light Rain
5:23 AM 50.0 °F - 48.9 °F 96% 29.72 in 10.0 mi North 8.1 mph - 0.00 in Rain Light Rain
5:53 AM 48.0 °F - 46.0 °F 93% 29.72 in 10.0 mi NNE 12.7 mph - 0.00 in   Overcast
6:53 AM 45.0 °F 39.7 °F 43.0 °F 93% 29.77 in 10.0 mi North 10.4 mph - 0.00 in Rain Light Rain
7:02 AM 44.1 °F 37.7 °F 43.0 °F 96% 29.76 in 10.0 mi NNE 12.7 mph - 0.00 in Rain Light Rain
7:53 AM 42.1 °F 36.6 °F 39.9 °F 92% 29.80 in 10.0 mi NNE 9.2 mph - 0.00 in Rain Light Rain
8:53 AM 41.0 °F 34.3 °F 39.0 °F 93% 29.80 in 10.0 mi NNE 11.5 mph - 0.00 in   Overcast
9:53 AM 39.9 °F 32.5 °F 37.9 °F 93% 29.83 in 2.5 mi North 12.7 mph - 0.00 in Rain Light Rain
10:08 AM 41.0 °F 33.9 °F 39.0 °F 93% 29.78 in 1.5 mi NE 12.7 mph - 0.01 in Rain Light Rain
10:16 AM 39.9 °F 32.9 °F 39.0 °F 97% 29.80 in 1.5 mi NNE 11.5 mph - 0.01 in Rain Light Rain
10:20 AM 39.9 °F 32.5 °F 37.9 °F 93% 29.81 in 2.0 mi NNE 12.7 mph - 0.01 in Rain Light Rain
10:23 AM 39.9 °F 33.4 °F 37.9 °F 93% 29.81 in 2.5 mi NNE 10.4 mph - 0.01 in Rain Light Rain
10:32 AM 41.0 °F 33.5 °F 39.0 °F 93% 29.81 in 3.0 mi NNE 13.8 mph - 0.01 in Rain Light Rain
10:38 AM 41.0 °F 33.5 °F 37.9 °F 89% 29.81 in 2.5 mi NNE 13.8 mph - 0.01 in Rain Light Rain
10:46 AM 41.0 °F 34.3 °F 39.0 °F 93% 29.82 in 2.5 mi NE 11.5 mph - 0.01 in Rain Light Rain
10:53 AM 41.0 °F 33.9 °F 39.0 °F 93% 29.82 in 4.0 mi NE 12.7 mph - 0.01 in Rain Light Rain
11:06 AM 41.0 °F 34.7 °F 39.0 °F 93% 29.81 in 3.0 mi NE 10.4 mph - 0.00 in   Overcast
11:36 AM 41.0 °F 34.7 °F 39.0 °F 93% 29.83 in 2.5 mi NNE 10.4 mph - 0.00 in Rain Light Rain
11:45 AM 42.1 °F 36.1 °F 39.9 °F 92% 29.82 in 4.0 mi NE 10.4 mph - 0.00 in Rain Light Rain
11:53 AM 42.1 °F 35.7 °F 39.9 °F 92% 29.84 in 5.0 mi NNE 11.5 mph - 0.00 in   Overcast
12:53 PM 42.1 °F 36.1 °F 39.9 °F 92% 29.86 in 5.0 mi NNE 10.4 mph 20.7 mph 0.00 in Rain Light Rain
1:53 PM 41.0 °F 34.3 °F 39.0 °F 93% 29.84 in 10.0 mi NNE 11.5 mph 19.6 mph 0.00 in   Overcast
2:53 PM 41.0 °F 33.9 °F 39.0 °F 93% 29.82 in 10.0 mi NNE 12.7 mph - 0.01 in Rain Light Rain
3:53 PM 41.0 °F 35.2 °F 39.0 °F 93% 29.82 in 9.0 mi NNE 9.2 mph - 0.00 in Rain Light Rain
4:53 PM 41.0 °F 34.3 °F 39.0 °F 93% 29.83 in 6.0 mi NNE 11.5 mph - 0.03 in Rain Light Rain
5:29 PM 41.0 °F 34.7 °F 39.0 °F 93% 29.82 in 7.0 mi NNE 10.4 mph - 0.02 in Rain Light Rain
5:45 PM 41.0 °F 35.8 °F 39.0 °F 93% 29.83 in 7.0 mi NNE 8.1 mph - 0.03 in Rain Light Rain
5:53 PM 41.0 °F 34.7 °F 39.0 °F 93% 29.85 in 7.0 mi NNE 10.4 mph - 0.03 in Rain Light Rain
6:32 PM 39.9 °F 33.9 °F 37.9 °F 93% 29.84 in 5.0 mi NNE 9.2 mph - 0.05 in Rain Light Rain
6:39 PM 39.9 °F 33.9 °F 37.9 °F 93% 29.84 in 8.0 mi NE 9.2 mph - 0.05 in Rain Light Rain
6:46 PM 39.9 °F 32.9 °F 37.9 °F 93% 29.83 in 10.0 mi NNE 11.5 mph - 0.05 in Rain Light Rain
6:53 PM 39.9 °F 33.9 °F 37.9 °F 93% 29.85 in 9.0 mi NE 9.2 mph - 0.06 in Rain Light Rain
7:07 PM 39.9 °F 32.9 °F 37.9 °F 93% 29.84 in 8.0 mi NE 11.5 mph - 0.00 in Rain Light Rain
7:26 PM 39.9 °F 32.9 °F 37.9 °F 93% 29.84 in 6.0 mi NE 11.5 mph - 0.03 in Rain Light Rain
7:42 PM 39.9 °F 32.5 °F 37.9 °F 93% 29.82 in 8.0 mi NE 12.7 mph - 0.04 in Rain Rain
7:49 PM 39.2 °F 32.0 °F 37.4 °F 93% 29.82 in 9.0 mi NE 11.5 mph - 0.04 in Rain Light Rain
7:53 PM 39.9 °F 33.4 °F 37.9 °F 93% 29.83 in 10.0 mi NE 10.4 mph - 0.04 in Rain Light Rain
8:53 PM 39.9 °F 34.5 °F 37.9 °F 93% 29.86 in 10.0 mi NNE 8.1 mph - 0.01 in Rain Light Rain
9:53 PM 39.9 °F 32.9 °F 37.9 °F 93% 29.88 in 10.0 mi NE 11.5 mph - 0.00 in   Overcast
10:53 PM 39.9 °F 33.9 °F 37.9 °F 93% 29.90 in 4.0 mi North 9.2 mph - 0.00 in Rain Light Rain
11:53 PM 39.0 °F 31.4 °F 37.9 °F 96% 29.89 in 5.0 mi North 12.7 mph - 0.00 in   Overcast